Tracking 28790 objects as of 19-Apr-2024
HD Live streaming from Space Station
objects crossing your sky now

METEOR 2-5 DEB

Track METEOR 2-5 DEB now!
10-day predictions


NORAD ID: 39603
Int'l Code: 1979-095CE
Perigee: 814.9 km
Apogee: 835.8 km
Inclination: 81.2 °
Period: 101.3 minutes
Semi major axis: 7196 km
RCS: Unknown
Launch date: October 31, 1979
Source: Commonwealth of Independent States (former USSR) (CIS)
Launch site: PLESETSK MISSILE AND SPACE COMPLEX (PKMTR)

Note: This is SATELLITE DEBRIS
Your satellite tracking list
Your tracking list is empty




NASA's NSSDC Master Catalog

Two Line Element Set (TLE):
1 39603U 79095CE  24107.62759494  .00015891  00000-0  71552-2 0  9997
2 39603  81.2138 241.5101 0014535 210.0066 150.0280 14.22106394553824
Source of the keplerian elements: AFSPC